Weather History for KLOT - March, 2014

Change the Weather History Date:

Monday, March 31, 2014

  Actual Average Record
Temperature  
Mean Temperature 54 °F 44 °F  
Max Temperature 67 °F 55 °F 78 °F (2010)
Min Temperature 41 °F - 23 °F (2011)
Degree Days  
Heating Degree Days 11 21  
Month to date heating degree days 1050 817  
Since 1 July heating degree days 6654 5545  
Cooling Degree Days 0 0  
Month to date cooling degree days 0 0  
Year to date cooling degree days 0 0  
Growing Degree Days 2 (Base 50)    
Moisture  
Dew Point 34 °F    
Average Humidity 52    
Maximum Humidity 74    
Minimum Humidity 29    
Precipitation  
Precipitation 0.02 in 0.10 in 1.56 in (1993)
Month to date precipitation 2.11 2.77  
Year to date precipitation 6.97 6.48  
Snow  
Snow 0.00 in 0.00 in 0.00 in (2011)
Month to date snowfall 10.2 4.4  
Since 1 July snowfall 75.7 31.8  
Snow Depth 0.00 in    
Sea Level Pressure  
Sea Level Pressure 29.91 in    
Wind  
Wind Speed 15 mph (South)    
Max Wind Speed 32 mph    
Max Gust Speed 41 mph    
Visibility 10 miles    
Events Rain    
T = Trace of Precipitation, MM = Missing Value Source: NWS Daily Summary

Daily Weather History Graph

Daily Weather History Graph

Search for Another Location

Airport or City:

Trip Planner

Search our weather history database for the weather conditions in past years. The results will help you decide how hot, cold, wet, or windy it might be!

Date:

Astronomy

Mar. 31, 2014 Rise Set
Actual Time 6:37 AM CDT 7:16 PM CDT
Civil Twilight 6:09 AM CDT 7:44 PM CDT
Nautical Twilight 5:36 AM CDT 8:17 PM CDT
Astronomical Twilight 5:01 AM CDT 8:52 PM CDT
Moon 6:59 AM CDT (3/31) 8:36 PM CDT (3/31)
Length of Visible Light 13h 35m
Length of Day
12h 39m
New Moon, 1% of the Moon is Illuminated
Mar 31
New Moon
Apr 7
First Quarter
Apr 15
Full
Apr 22
Last Quarter
Apr 29
New

Hourly Weather History & Observations

Time (CDT) Temp. Windchill Dew Point Humidity Pressure Visibility Wind Dir Wind Speed Gust Speed Precip Events Conditions
12:15 AM 41.2 °F 35.0 °F 32.2 °F 70% 30.04 in 10.0 mi South 10.4 mph - N/A   Clear
12:35 AM 40.5 °F 34.1 °F 32.2 °F 72% 30.04 in 10.0 mi South 10.4 mph - N/A   Clear
12:55 AM 41.5 °F 35.0 °F 32.2 °F 69% 30.05 in 10.0 mi South 11.5 mph - N/A   Clear
1:15 AM 41.4 °F 34.7 °F 32.2 °F 70% 30.05 in 10.0 mi South 11.5 mph - N/A   Clear
1:35 AM 40.1 °F 33.6 °F 32.0 °F 73% 30.05 in 10.0 mi South 10.4 mph - N/A   Clear
1:55 AM 39.6 °F 33.5 °F 32.0 °F 74% 30.05 in 10.0 mi South 9.2 mph - N/A   Clear
2:15 AM 39.6 °F 33.5 °F 32.0 °F 74% 30.05 in 10.0 mi South 9.2 mph - N/A   Clear
2:35 AM 40.3 °F 33.9 °F 32.0 °F 72% 30.04 in 10.0 mi South 10.4 mph - N/A   Clear
2:55 AM 40.3 °F 33.9 °F 32.0 °F 72% 30.04 in 10.0 mi South 10.4 mph - N/A   Clear
3:15 AM 41.2 °F 34.5 °F 32.4 °F 71% 30.04 in 10.0 mi South 11.5 mph - N/A   Clear
3:35 AM 42.3 °F 36.8 °F 32.4 °F 68% 30.04 in 10.0 mi South 9.2 mph - N/A   Scattered Clouds
3:55 AM 42.6 °F 36.8 °F 32.2 °F 67% 30.04 in 10.0 mi South 10.4 mph - N/A   Scattered Clouds
4:15 AM 42.8 °F 36.6 °F 32.4 °F 67% 30.04 in 10.0 mi South 11.5 mph - N/A   Scattered Clouds
4:35 AM 43.0 °F 36.8 °F 32.7 °F 67% 30.04 in 10.0 mi SSW 11.5 mph - N/A   Mostly Cloudy
4:55 AM 43.3 °F 36.8 °F 32.4 °F 65% 30.04 in 10.0 mi South 12.7 mph - N/A   Scattered Clouds
5:15 AM 42.3 °F 35.1 °F 32.2 °F 67% 30.04 in 10.0 mi South 13.8 mph - N/A   Clear
5:35 AM 42.1 °F 35.7 °F 32.0 °F 67% 30.03 in 10.0 mi South 11.5 mph - N/A   Clear
5:55 AM 41.0 °F 33.9 °F 32.0 °F 70% 30.03 in 10.0 mi South 12.7 mph - N/A   Scattered Clouds
6:15 AM 40.3 °F 33.9 °F 32.0 °F 72% 30.03 in 10.0 mi South 10.4 mph - N/A   Clear
6:35 AM 40.1 °F 33.2 °F 32.0 °F 73% 30.02 in 10.0 mi SSE 11.5 mph - N/A   Clear
6:55 AM 40.1 °F 33.6 °F 32.0 °F 73% 30.02 in 10.0 mi South 10.4 mph - N/A   Clear
7:15 AM 41.0 °F 34.7 °F 32.4 °F 71% 30.03 in 10.0 mi South 10.4 mph - N/A   Clear
7:35 AM 41.0 °F 34.7 °F 32.5 °F 72% 30.03 in 10.0 mi South 10.4 mph - N/A   Clear
7:55 AM 42.4 °F 36.1 °F 33.1 °F 69% 30.02 in 10.0 mi South 11.5 mph - N/A   Clear
8:15 AM 43.7 °F 38.1 °F 33.6 °F 68% 30.02 in 10.0 mi SSE 10.4 mph - N/A   Clear
8:35 AM 45.7 °F 40.2 °F 34.9 °F 66% 30.01 in 10.0 mi South 11.5 mph - N/A   Clear
8:55 AM 47.5 °F - 35.1 °F 62% 30.01 in 10.0 mi South 13.8 mph - N/A   Clear
9:15 AM 49.3 °F - 34.5 °F 57% 30.01 in 10.0 mi South 15.0 mph 19.6 mph N/A   Clear
9:35 AM 50.9 °F - 34.3 °F 53% 30.00 in 10.0 mi South 21.9 mph - N/A   Clear
9:55 AM 53.6 °F - 34.5 °F 48% 30.01 in 10.0 mi South 20.7 mph - N/A   Clear
10:20 AM 55.2 °F - 35.1 °F 47% 30.00 in 10.0 mi South 18.4 mph 25.3 mph N/A   Clear
10:35 AM 54.5 °F - 34.2 °F 46% 30.00 in 10.0 mi South 21.9 mph - N/A   Clear
10:55 AM 55.4 °F - 35.8 °F 48% 30.00 in 10.0 mi South 16.1 mph - N/A   Clear
11:15 AM 56.7 °F - 35.8 °F 46% 29.99 in 10.0 mi South 19.6 mph - N/A   Clear
11:35 AM 59.2 °F - 34.5 °F 40% 29.98 in 10.0 mi South 24.2 mph 28.8 mph N/A   Clear
11:55 AM 60.4 °F - 35.6 °F 40% 29.97 in 10.0 mi South 20.7 mph 27.6 mph N/A   Clear
12:15 PM 61.2 °F - 35.2 °F 38% 29.96 in 10.0 mi South 25.3 mph 29.9 mph N/A   Clear
12:35 PM 62.4 °F - 34.2 °F 35% 29.95 in 10.0 mi South 26.5 mph 32.2 mph N/A   Clear
12:55 PM 63.7 °F - 35.4 °F 35% 29.93 in 10.0 mi South 27.6 mph 32.2 mph N/A   Clear
1:15 PM 64.4 °F - 34.9 °F 33% 29.92 in 10.0 mi South 28.8 mph 33.4 mph N/A   Clear
1:35 PM 64.4 °F - 33.3 °F 31% 29.91 in 10.0 mi South 27.6 mph 33.4 mph N/A   Clear
1:55 PM 65.1 °F - 34.0 °F 31% 29.90 in 10.0 mi South 27.6 mph 34.5 mph N/A   Clear
2:15 PM 65.3 °F - 32.7 °F 30% 29.88 in 10.0 mi South 32.2 mph 39.1 mph N/A   Clear
2:35 PM 64.9 °F - 31.6 °F 29% 29.87 in 10.0 mi South 31.1 mph 41.4 mph N/A   Clear
2:55 PM 64.6 °F - 32.5 °F 30% 29.86 in 10.0 mi South 28.8 mph 38.0 mph N/A   Clear
3:15 PM 63.0 °F - 32.4 °F 32% 29.85 in 10.0 mi South 25.3 mph 35.7 mph N/A   Clear
3:35 PM 62.8 °F - 31.6 °F 31% 29.84 in 10.0 mi South 25.3 mph 29.9 mph N/A   Scattered Clouds
3:55 PM 63.1 °F - 31.6 °F 31% 29.82 in 10.0 mi South 23.0 mph 35.7 mph N/A   Scattered Clouds
4:15 PM 63.0 °F - 30.7 °F 30% 29.81 in 10.0 mi South 25.3 mph 32.2 mph N/A   Clear
4:35 PM 63.0 °F - 30.9 °F 30% 29.78 in 10.0 mi SSE 23.0 mph 35.7 mph N/A   Clear
4:55 PM 62.6 °F - 31.5 °F 31% 29.78 in 10.0 mi SSE 19.6 mph 29.9 mph N/A   Clear
5:15 PM 62.2 °F - 31.5 °F 31% 29.77 in 10.0 mi South 17.3 mph 25.3 mph N/A   Scattered Clouds
5:35 PM 61.3 °F - 32.2 °F 33% 29.77 in 10.0 mi South 20.7 mph 26.5 mph N/A   Overcast
5:55 PM 61.7 °F - 30.9 °F 31% 29.76 in 10.0 mi South 23.0 mph 29.9 mph N/A   Overcast
6:15 PM 60.8 °F - 31.1 °F 33% 29.75 in 10.0 mi South 18.4 mph 26.5 mph N/A   Mostly Cloudy
6:35 PM 60.6 °F - 31.3 °F 33% 29.76 in 10.0 mi South 20.7 mph 25.3 mph N/A   Mostly Cloudy
6:55 PM 59.9 °F - 32.2 °F 35% 29.76 in 10.0 mi South 20.7 mph 25.3 mph N/A   Mostly Cloudy
7:15 PM 59.2 °F - 32.7 °F 37% 29.76 in 10.0 mi South 18.4 mph 25.3 mph N/A   Mostly Cloudy
7:35 PM 58.8 °F - 33.1 °F 38% 29.76 in 10.0 mi South 20.7 mph 24.2 mph N/A   Overcast
7:55 PM 58.5 °F - 33.8 °F 39% 29.76 in 10.0 mi South 19.6 mph 28.8 mph N/A   Overcast
8:15 PM 56.3 °F - 37.2 °F 49% 29.76 in 10.0 mi South 20.7 mph - N/A Rain Light Rain
8:35 PM 55.0 °F - 38.3 °F 53% 29.76 in 10.0 mi SSE 17.3 mph 23.0 mph N/A Rain Light Rain
8:55 PM 55.0 °F - 37.8 °F 52% 29.75 in 10.0 mi South 20.7 mph - N/A Rain Light Rain
9:15 PM 55.8 °F - 36.7 °F 49% 29.74 in 10.0 mi South 23.0 mph 27.6 mph N/A   Overcast
9:35 PM 56.1 °F - 36.5 °F 48% 29.75 in 10.0 mi South 19.6 mph 25.3 mph N/A   Overcast
9:55 PM 56.1 °F - 36.5 °F 48% 29.74 in 10.0 mi South 19.6 mph 28.8 mph N/A   Overcast
10:15 PM 54.5 °F - 39.0 °F 56% 29.75 in 10.0 mi South 19.6 mph 26.5 mph N/A Rain Light Rain
10:35 PM 54.3 °F - 39.6 °F 57% 29.76 in 10.0 mi South 13.8 mph - N/A   Overcast
10:55 PM 54.5 °F - 39.7 °F 57% 29.75 in 10.0 mi South 13.8 mph - N/A Rain Light Rain
11:15 PM 55.2 °F - 38.5 °F 53% 29.74 in 10.0 mi South 17.3 mph 23.0 mph N/A   Scattered Clouds
11:35 PM 55.8 °F - 38.3 °F 52% 29.73 in 10.0 mi South 18.4 mph 26.5 mph N/A   Clear
11:55 PM 55.6 °F - 38.5 °F 53% 29.74 in 10.0 mi SSW 18.4 mph 23.0 mph N/A   Scattered Clouds